When you browse on this site, cookies collect data to enhance your experience and personalize the content and advertising you see.
Visit our Privacy Policy to learn more. By continuing to use the site, you agree to this use of cookies and data.
  • In Hungary
  • List of Countries
  • For 7 days
  • Water Temperature
  • Weather Map
  • News
  • Weather Widgets
  • user-avatar
    Login

    Hourly Weather Remscheid

    Today, 12 December, Thursday

    Time Temperature Precipitation Wind Pressure Humidity
    00:00 +2°C° 0 mm 2 mps 725 mmHg 91%
    01:00 +2°C° 0 mm 2 mps 725 mmHg 91%
    02:00 +2°C° 0 mm 2 mps 725 mmHg 91%
    03:00 +2°C° 0 mm 2 mps 724 mmHg 91%
    04:00 +2°C° 0 mm 2 mps 724 mmHg 91%
    05:00 +2°C° 0 mm 2 mps 724 mmHg 92%
    06:00 +3°C° 0 mm 2 mps 724 mmHg 93%
    07:00 +3°C° 0.1 mm 2 mps 724 mmHg 92%
    08:00 +2°C° 0.1 mm 3 mps 724 mmHg 91%
    09:00 +2°C° 0.1 mm 3 mps 724 mmHg 90%
    10:00 +2°C° 0 mm 3 mps 724 mmHg 85%
    11:00 +2°C° 0 mm 3 mps 723 mmHg 80%
    12:00 +3°C° 0 mm 3 mps 723 mmHg 75%
    13:00 +2°C° 0 mm 3 mps 722 mmHg 76%
    14:00 +1°C° 0 mm 4 mps 721 mmHg 77%
    15:00 0°C° 0 mm 4 mps 721 mmHg 78%
    16:00 0°C° 0 mm 4 mps 720 mmHg 78%
    17:00 0°C° 0 mm 4 mps 719 mmHg 79%
    18:00 -1°C° 0 mm 5 mps 719 mmHg 79%
    19:00 -1°C° 0 mm 5 mps 717 mmHg 79%
    20:00 -2°C° 0 mm 6 mps 716 mmHg 78%
    21:00 -2°C° 0 mm 6 mps 715 mmHg 77%
    22:00 -2°C° 0 mm 6 mps 714 mmHg 76%
    23:00 -2°C° 0 mm 7 mps 712 mmHg 74%

    Tomorrow, 13 December, Friday

    Time Temperature Precipitation Wind Pressure Humidity
    00:00 -1°C° 0 mm 7 mps 711 mmHg 72%
    01:00 -2°C° 0.2 mm 7 mps 710 mmHg 78%
    02:00 -2°C° 0.2 mm 7 mps 708 mmHg 84%
    03:00 -2°C° 0.2 mm 8 mps 707 mmHg 90%
    04:00 -1°C° 0.1 mm 7 mps 706 mmHg 90%
    05:00 -1°C° 0.1 mm 6 mps 705 mmHg 89%
    06:00 +1°C° 0.1 mm 5 mps 704 mmHg 88%
    07:00 +1°C° 1 mm 5 mps 703 mmHg 89%
    08:00 +1°C° 1 mm 5 mps 703 mmHg 90%
    09:00 +1°C° 1 mm 5 mps 703 mmHg 91%
    10:00 +2°C° 0.4 mm 5 mps 703 mmHg 91%
    11:00 +3°C° 0.4 mm 4 mps 703 mmHg 90%
    12:00 +3°C° 0.4 mm 4 mps 704 mmHg 90%
    13:00 +3°C° 0.4 mm 4 mps 704 mmHg 91%
    14:00 +3°C° 0.4 mm 4 mps 705 mmHg 93%
    15:00 +3°C° 0.4 mm 4 mps 705 mmHg 94%
    16:00 +3°C° 1 mm 4 mps 706 mmHg 94%
    17:00 +2°C° 1 mm 5 mps 708 mmHg 94%
    18:00 +2°C° 1 mm 6 mps 709 mmHg 93%
    19:00 +2°C° 0.8 mm 6 mps 710 mmHg 90%
    20:00 +2°C° 0.8 mm 6 mps 710 mmHg 86%
    21:00 +2°C° 0.8 mm 5 mps 711 mmHg 83%
    22:00 +2°C° 0.2 mm 5 mps 712 mmHg 84%
    23:00 +2°C° 0.2 mm 5 mps 713 mmHg 85%

    Day after tomorrow, 14 December, Saturday

    Time Temperature Precipitation Wind Pressure Humidity
    00:00 +2°C° 0.2 mm 5 mps 713 mmHg 86%
    01:00 +2°C° 0 mm 5 mps 713 mmHg 85%
    02:00 +2°C° 0 mm 5 mps 713 mmHg 84%
    03:00 +1°C° 0 mm 5 mps 713 mmHg 83%
    04:00 +1°C° 0.9 mm 5 mps 713 mmHg 86%
    05:00 +1°C° 0.9 mm 5 mps 712 mmHg 89%
    06:00 +1°C° 0.9 mm 5 mps 712 mmHg 91%
    07:00 +2°C° 1.1 mm 7 mps 712 mmHg 88%
    08:00 +2°C° 1.1 mm 8 mps 713 mmHg 84%
    09:00 +3°C° 1.1 mm 10 mps 713 mmHg 81%
    10:00 +2°C° 0.2 mm 9 mps 715 mmHg 76%
    11:00 +2°C° 0.2 mm 8 mps 716 mmHg 70%
    12:00 +2°C° 0.2 mm 8 mps 718 mmHg 65%
    13:00 +3°C° 0 mm 7 mps 718 mmHg 66%
    14:00 +3°C° 0 mm 6 mps 719 mmHg 67%
    15:00 +2°C° 0 mm 5 mps 720 mmHg 69%
    16:00 +3°C° 0.3 mm 4 mps 720 mmHg 76%
    17:00 +3°C° 0.3 mm 4 mps 720 mmHg 83%
    18:00 +3°C° 0.3 mm 3 mps 720 mmHg 90%
    19:00 +3°C° 0.3 mm 4 mps 721 mmHg 89%
    20:00 +3°C° 0.3 mm 4 mps 721 mmHg 88%
    21:00 +4°C° 0.3 mm 4 mps 722 mmHg 87%
    22:00 +3°C° 0 mm 4 mps 721 mmHg 87%
    23:00 +3°C° 0 mm 3 mps 721 mmHg 86%

    15 December, Sunday

    Time Temperature Precipitation Wind Pressure Humidity
    00:00 +3°C° 0 mm 3 mps 721 mmHg 86%
    01:00 +3°C° 0.4 mm 4 mps 720 mmHg 88%
    02:00 +4°C° 0.4 mm 4 mps 719 mmHg 89%
    03:00 +5°C° 0.4 mm 4 mps 719 mmHg 90%
    04:00 +5°C° 0.3 mm 5 mps 719 mmHg 85%
    05:00 +3°C° 0.3 mm 6 mps 720 mmHg 80%
    06:00 +3°C° 0.3 mm 7 mps 721 mmHg 75%
    07:00 +3°C° 0 mm 6 mps 722 mmHg 74%
    08:00 +3°C° 0 mm 5 mps 723 mmHg 72%
    09:00 +2°C° 0 mm 5 mps 724 mmHg 71%
    10:00 +3°C° 0 mm 5 mps 725 mmHg 69%
    11:00 +3°C° 0 mm 5 mps 726 mmHg 67%
    12:00 +5°C° 0 mm 5 mps 726 mmHg 64%
    13:00 +3°C° 0 mm 5 mps 726 mmHg 66%
    14:00 +4°C° 0 mm 4 mps 727 mmHg 67%
    15:00 +3°C° 0 mm 3 mps 727 mmHg 69%
    16:00 +3°C° 0 mm 3 mps 727 mmHg 70%
    17:00 +3°C° 0 mm 3 mps 727 mmHg 71%
    18:00 +2°C° 0 mm 3 mps 728 mmHg 72%
    19:00 +2°C° 0 mm 3 mps 728 mmHg 74%
    20:00 +2°C° 0 mm 3 mps 728 mmHg 77%
    21:00 +3°C° 0 mm 4 mps 728 mmHg 79%
    22:00 +3°C° 0 mm 4 mps 728 mmHg 81%
    23:00 +3°C° 0 mm 4 mps 728 mmHg 83%

    16 December, Monday

    Time Temperature Precipitation Wind Pressure Humidity
    00:00 +3°C° 0 mm 4 mps 728 mmHg 85%
    01:00 +3°C° 0.2 mm 4 mps 728 mmHg 86%
    02:00 +4°C° 0.2 mm 3 mps 728 mmHg 87%
    03:00 +4°C° 0.2 mm 3 mps 728 mmHg 88%
    04:00 +4°C° 0 mm 3 mps 728 mmHg 89%
    05:00 +4°C° 0 mm 3 mps 728 mmHg 90%
    06:00 +5°C° 0 mm 2 mps 728 mmHg 91%
    07:00 +5°C° 0 mm 2 mps 729 mmHg 91%
    08:00 +5°C° 0 mm 2 mps 729 mmHg 90%
    09:00 +6°C° 0 mm 2 mps 729 mmHg 89%
    10:00 +6°C° 0.1 mm 2 mps 729 mmHg 88%
    11:00 +6°C° 0.1 mm 2 mps 729 mmHg 87%
    12:00 +7°C° 0.1 mm 2 mps 729 mmHg 85%
    13:00 +7°C° 0.3 mm 2 mps 728 mmHg 88%
    14:00 +6°C° 0.3 mm 2 mps 728 mmHg 90%
    15:00 +6°C° 0.3 mm 2 mps 728 mmHg 93%
    16:00 +6°C° 0.6 mm 2 mps 728 mmHg 93%
    17:00 +7°C° 0.6 mm 2 mps 728 mmHg 93%
    18:00 +7°C° 0.6 mm 2 mps 728 mmHg 93%
    19:00 +7°C° 0.1 mm 3 mps 727 mmHg 90%
    20:00 +7°C° 0.1 mm 3 mps 727 mmHg 86%
    21:00 +8°C° 0.1 mm 3 mps 727 mmHg 83%
    22:00 +7°C° 0 mm 3 mps 727 mmHg 83%
    23:00 +7°C° 0 mm 3 mps 727 mmHg 83%

    17 December, Tuesday

    Time Temperature Precipitation Wind Pressure Humidity
    00:00 +7°C° 0 mm 3 mps 727 mmHg 84%
    01:00 +7°C° 0 mm 3 mps 727 mmHg 84%
    02:00 +7°C° 0 mm 3 mps 727 mmHg 83%
    03:00 +7°C° 0 mm 3 mps 727 mmHg 83%
    04:00 +7°C° 0 mm 3 mps 727 mmHg 82%
    05:00 +7°C° 0 mm 3 mps 727 mmHg 80%
    06:00 +7°C° 0 mm 3 mps 727 mmHg 79%
    07:00 +7°C° 0 mm 3 mps 727 mmHg 78%
    08:00 +8°C° 0 mm 3 mps 727 mmHg 77%
    09:00 +7°C° 0 mm 4 mps 728 mmHg 77%
    10:00 +8°C° 0.1 mm 3 mps 728 mmHg 80%
    11:00 +8°C° 0.1 mm 3 mps 728 mmHg 83%
    12:00 +8°C° 0.1 mm 3 mps 728 mmHg 87%
    13:00 +8°C° 0.6 mm 3 mps 728 mmHg 89%
    14:00 +8°C° 0.6 mm 3 mps 728 mmHg 92%
    15:00 +8°C° 0.6 mm 3 mps 729 mmHg 94%
    16:00 +7°C° 0.5 mm 3 mps 729 mmHg 93%
    17:00 +7°C° 0.5 mm 3 mps 730 mmHg 92%
    18:00 +5°C° 0.5 mm 3 mps 730 mmHg 90%
    19:00 +5°C° 0.1 mm 3 mps 731 mmHg 90%
    20:00 +5°C° 0.1 mm 3 mps 732 mmHg 89%
    21:00 +5°C° 0.1 mm 3 mps 733 mmHg 88%
    22:00 +4°C° 0 mm 3 mps 734 mmHg 88%
    23:00 +3°C° 0 mm 3 mps 734 mmHg 89%
    Show more